Theta_e
341 345 341 343 344 343 342 337 336 336 334 332 332 332 331 336 338 333 332 350 348 349 352 353 353 354 354 353 352 352 353 354 354 353 351 351 351 351 352 352 351 351 350
342 346 343 345 344 344 341 340 339 336 334 333 330 330 331 333 333 331 331 339 348 348 350 352 353 353 354 354 353 352 352 352 353 353 351 350 350 350 351 352 351 351 351
348 349 348 343 342 344 342 346 341 343 340 338 334 334 334 333 333 332 333 331 338 346 347 348 351 351 353 354 354 353 352 352 353 352 351 350 349 349 350 351 351 351 350
347 344 343 342 346 345 344 344 342 340 336 330 330 336 341 339 337 335 333 334 333 335 342 346 347 350 351 353 354 354 352 351 352 351 350 349 349 349 349 349 350 350 350
346 344 342 340 343 340 336 335 339 336 338 334 334 335 341 339 331 336 338 336 341 340 341 344 347 347 348 351 352 354 354 353 351 351 350 349 349 349 348 349 349 349 349
345 342 338 335 337 334 332 335 326 325 329 335 336 337 337 336 329 332 334 336 335 338 346 344 344 344 346 348 350 352 353 355 353 352 350 348 348 349 349 349 348 349 349
343 333 328 328 327 331 329 327 326 323 324 324 325 324 329 325 323 332 332 333 333 335 337 346 345 346 345 347 347 349 352 354 356 353 350 347 347 349 349 349 348 348 348
342 333 327 327 335 332 328 326 325 321 321 324 323 322 315 318 319 329 329 332 328 332 335 342 344 344 344 343 342 346 349 352 355 356 351 347 347 348 349 349 348 348 347
346 336 335 336 340 333 327 325 323 319 316 320 325 322 313 311 317 323 327 331 335 337 336 343 343 344 342 341 344 345 347 347 352 354 353 349 348 349 349 349 348 348 347
337 335 334 339 335 323 321 322 325 321 318 316 326 329 326 321 318 316 322 327 330 331 336 341 342 339 341 339 345 346 342 343 348 351 352 352 352 351 351 350 349 347 347
325 325 328 330 332 326 323 322 327 322 321 319 322 327 327 326 324 320 317 321 323 326 331 336 340 338 337 337 336 336 338 339 340 342 347 350 351 352 351 351 349 348 348
320 323 324 322 321 322 321 325 331 327 324 326 328 331 329 324 323 323 321 321 321 324 328 332 333 335 337 337 340 339 335 335 334 334 337 341 346 349 350 351 351 351 349
315 318 318 316 316 316 317 318 319 321 323 326 328 329 331 330 330 327 324 322 321 324 326 330 331 329 331 335 337 339 339 334 331 329 329 332 336 341 345 347 349 349 348
314 316 315 316 316 316 315 315 316 316 318 318 317 319 321 323 327 329 326 323 319 319 322 320 326 331 330 330 333 334 334 331 329 327 327 328 330 333 337 340 342 342 341
316 314 314 313 314 315 314 313 312 312 314 315 315 315 315 317 318 319 321 323 320 315 316 321 320 325 329 332 334 334 334 332 331 327 326 325 326 328 330 333 335 335 336
312 312 311 310 309 309 308 307 306 307 307 308 311 310 311 312 313 315 314 315 317 317 315 322 323 322 321 326 332 335 334 332 330 326 325 324 323 324 326 328 330 331 332
309 308 308 307 307 306 306 304 304 305 305 304 305 306 307 307 307 309 309 310 313 314 314 319 323 325 325 326 332 335 338 335 333 325 325 323 321 321 322 324 324 326 328
307 307 307 306 307 307 305 305 304 305 305 304 304 303 304 306 303 303 303 303 306 311 313 311 318 321 322 325 326 327 334 337 335 328 325 323 321 319 319 320 321 322 323
306 306 306 306 306 306 305 305 305 306 304 306 306 305 304 304 303 301 302 302 305 308 309 310 310 317 321 326 325 326 327 329 334 332 324 321 319 318 317 319 318 319 318
306 305 305 305 306 306 306 306 307 306 303 305 307 307 305 304 303 302 302 303 303 302 305 306 307 309 314 321 325 323 322 326 327 334 328 324 318 316 317 319 319 319 316
306 307 306 307 307 306 307 303 303 303 302 302 303 304 304 306 308 307 304 302 301 300 301 301 301 303 306 312 316 322 321 319 322 325 324 324 323 322 320 319 322 320 314
304 305 306 307 304 305 303 303 304 302 302 302 302 304 305 307 306 306 306 306 305 300 298 298 298 298 302 306 312 318 320 318 316 324 324 322 327 324 324 322 318 315 311
303 306 305 303 302 303 302 301 303 304 305 304 303 303 303 305 305 305 304 304 304 304 304 302 299 300 301 306 310 312 318 317 315 320 322 319 328 327 326 324 313 309 308
304 304 304 305 304 305 302 300 301 304 304 305 304 304 304 304 304 303 302 301 301 302 302 305 305 304 304 307 310 315 316 320 321 320 322 316 325 325 326 323 310 308 306
304 304 305 306 305 307 302 300 300 302 302 302 304 306 307 306 303 298 302 301 300 302 305 303 302 301 301 302 306 310 313 316 314 314 319 317 317 318 316 313 315 309 305
304 305 305 304 304 305 302 298 298 299 297 299 300 302 303 304 301 297 301 301 300 302 303 304 305 304 301 305 303 308 313 314 315 311 317 317 317 316 311 311 311 309 308
Wind_Speed
5 4 5 5 6 5 6 5 6 7 7 8 9 10 8 9 9 4 4 15 14 14 16 17 15 15 16 16 16 16 15 16 17 16 15 15 15 15 15 14 14 14 14
4 4 5 5 5 6 5 6 7 6 7 7 9 10 10 6 6 6 5 6 14 16 16 15 15 16 17 17 18 17 17 16 17 17 17 16 15 16 16 16 15 15 15
5 4 1 2 2 3 6 5 6 4 1 3 7 6 6 7 6 5 5 4 6 14 14 14 15 18 18 19 20 20 18 17 17 18 17 16 15 16 16 16 15 16 15
8 8 6 4 3 5 9 11 4 5 3 1 2 4 8 10 14 11 9 5 5 6 12 19 18 18 18 19 18 19 19 18 17 19 19 18 16 16 17 15 15 16 15
8 6 5 6 1 3 4 2 13 9 8 6 7 7 8 9 11 9 12 12 17 9 6 10 16 18 18 18 18 18 18 17 15 17 19 18 18 18 17 16 16 16 16
7 7 6 6 3 3 4 7 8 7 7 7 5 1 5 6 7 10 6 7 10 13 14 13 7 7 16 18 18 19 20 19 17 17 18 18 17 18 17 16 16 16 16
7 5 3 3 2 5 9 7 4 4 3 3 7 5 6 8 7 4 5 6 3 16 12 16 6 5 6 15 17 19 21 21 19 18 17 16 17 17 17 15 16 15 15
4 4 4 4 5 4 8 5 4 3 3 3 4 5 6 4 3 7 5 5 11 10 15 17 7 7 7 6 8 15 17 20 20 19 16 14 16 17 17 15 16 16 15
2 5 6 5 6 6 6 6 5 6 2 3 5 5 3 5 3 3 10 9 14 13 15 11 8 6 5 5 6 6 10 14 18 19 16 15 16 18 18 16 16 15 15
4 6 6 3 6 3 2 3 2 3 3 5 2 7 8 3 4 5 0 4 6 7 8 6 7 7 7 5 6 7 9 11 15 18 17 16 16 17 18 16 16 15 15
9 7 7 7 5 4 4 5 4 5 5 7 7 2 7 8 6 4 7 9 8 6 6 8 8 6 7 6 5 7 13 15 15 15 13 14 14 16 17 16 16 15 14
4 6 7 7 6 5 3 0 4 5 6 7 7 9 9 6 4 7 9 11 12 11 10 10 7 7 6 7 9 14 13 17 13 10 10 11 13 14 15 16 16 15 15
4 6 6 6 4 4 6 6 3 3 4 5 6 7 7 7 6 8 7 9 10 10 11 11 10 9 8 7 8 14 14 13 13 10 12 12 12 13 12 12 15 14 14
3 5 5 5 5 5 5 5 4 4 7 6 7 7 7 7 6 7 7 9 14 13 11 9 5 8 8 8 11 17 11 12 13 13 13 13 12 11 9 11 12 12 11
3 5 5 5 5 5 5 5 4 6 6 5 6 6 5 6 7 8 5 6 9 14 15 11 4 6 6 6 10 12 11 11 13 12 12 12 11 10 12 13 14 13 13
3 5 5 6 5 4 4 4 3 4 6 7 6 7 7 5 6 6 6 7 8 10 13 9 12 9 10 9 13 16 12 11 12 9 8 8 8 10 12 13 14 14 12
5 5 5 4 4 5 5 5 5 6 6 6 7 8 8 9 8 8 5 7 9 9 13 9 10 8 9 9 9 8 8 6 5 11 11 11 12 12 13 12 9 8 10
3 3 4 5 5 5 6 6 6 7 9 10 10 9 11 9 9 9 8 11 10 12 11 14 11 10 13 13 10 6 5 6 7 10 13 13 13 13 13 14 15 13 12
4 5 5 6 6 6 6 7 7 8 7 10 11 12 12 12 12 7 9 10 10 9 11 11 9 10 9 9 7 6 5 5 5 11 12 11 11 11 13 14 13 13 14
4 6 6 6 7 9 9 8 10 6 7 10 11 10 11 12 12 11 11 12 10 10 10 8 8 8 9 10 5 7 6 3 4 4 6 7 8 9 10 13 15 16 15
5 6 6 7 7 6 7 6 9 11 11 12 12 13 13 16 22 18 11 12 11 9 10 11 10 9 9 10 8 6 7 5 5 5 4 3 3 4 5 10 12 16 17
6 6 8 9 6 7 12 15 15 11 12 12 13 13 14 18 18 22 23 25 20 14 13 10 10 11 13 11 11 11 5 3 3 3 5 4 6 5 5 7 12 13 14
6 9 9 7 9 11 13 16 19 12 14 15 16 15 14 12 16 14 16 19 22 22 21 15 15 13 12 11 11 13 11 5 6 4 4 3 5 5 5 6 13 17 16
8 8 9 11 10 10 15 16 17 12 13 15 16 16 16 17 15 14 13 14 14 14 15 12 14 14 14 16 13 12 13 8 2 2 4 4 4 4 4 4 15 13 14
8 9 9 11 11 12 16 14 13 14 14 17 17 18 17 17 19 17 14 16 15 15 15 20 18 19 17 20 13 4 8 8 3 4 4 4 2 4 2 2 4 15 15
6 7 10 8 11 11 11 15 13 10 13 12 16 18 22 20 22 19 16 15 15 16 12 12 10 13 17 16 19 11 10 8 4 2 4 5 3 4 2 1 1 7 8
Wind_Direction
200 211 190 182 195 194 199 213 211 214 221 232 235 230 220 216 224 208 199 193 194 201 207 213 214 218 222 227 227 228 226 223 229 227 224 223 224 228 230 226 227 226 228
191 201 191 187 206 210 198 206 222 225 228 221 231 239 245 234 225 226 183 205 207 211 216 217 220 226 227 227 231 233 231 224 226 225 225 225 220 227 227 225 222 231 226
185 188 153 269 261 205 231 219 235 202 177 285 266 262 258 264 274 263 257 207 211 226 228 236 229 230 230 230 231 232 230 226 221 224 223 227 223 223 229 231 217 228 227
63 35 1 355 349 17 13 351 348 331 358 314 298 319 7 358 348 329 322 299 239 226 231 237 239 239 239 239 243 243 240 235 224 224 222 219 225 225 230 228 224 225 225
131 159 174 254 350 77 83 96 13 335 353 8 341 329 4 5 358 329 342 353 330 305 288 261 236 237 241 247 246 251 252 244 238 233 232 227 217 223 229 225 223 225 223
173 179 198 223 176 119 48 75 70 5 9 9 329 260 219 156 203 223 216 335 292 302 295 259 242 233 235 241 244 246 248 243 235 235 235 235 226 223 223 224 225 225 227
154 171 187 181 47 66 94 106 149 100 235 318 325 279 211 206 216 229 176 180 210 281 282 267 242 232 244 234 237 242 248 249 241 238 236 233 229 230 231 222 223 224 228
183 170 203 177 173 149 123 167 176 170 251 108 217 281 293 334 231 172 157 195 221 259 267 269 253 248 234 244 235 237 245 248 246 240 232 231 229 231 237 226 221 225 226
188 191 212 224 163 156 185 189 194 180 231 237 196 190 278 243 289 193 172 199 226 237 252 255 236 241 232 232 231 235 234 239 245 244 234 223 226 230 235 229 219 222 231
88 79 60 76 121 98 185 213 215 205 113 265 288 204 241 236 250 327 300 252 229 254 270 281 256 237 234 232 244 240 244 248 242 239 235 233 228 229 231 228 220 219 225
75 65 57 53 96 154 194 215 218 206 199 245 234 224 233 245 259 243 273 282 285 259 256 263 253 242 239 233 243 249 250 256 248 242 229 233 230 226 229 225 221 219 218
43 43 52 54 47 40 37 40 220 235 232 243 265 269 252 236 218 227 244 254 259 267 269 258 246 232 231 233 236 247 248 254 247 236 233 235 240 231 226 223 214 215 219
19 17 43 40 44 22 354 346 339 275 258 261 263 271 267 257 261 264 258 259 263 267 264 250 249 243 230 218 219 226 235 227 227 225 232 236 238 239 225 218 214 211 207
38 43 34 26 7 346 337 330 314 310 307 300 289 285 287 292 292 283 275 281 279 276 264 258 234 232 232 229 223 227 243 229 232 237 243 246 236 237 226 209 216 206 210
22 10 2 352 344 347 341 335 319 312 311 304 312 315 310 315 314 305 305 294 279 278 270 272 266 268 249 247 237 231 234 218 219 223 229 230 229 223 221 211 206 201 206
12 10 10 18 13 8 359 349 329 319 316 308 310 326 324 319 321 315 310 312 304 290 287 278 274 284 268 253 246 235 219 194 212 197 200 210 227 240 231 214 206 206 197
26 28 13 349 320 299 293 281 262 264 269 282 290 287 291 301 291 288 305 299 289 284 285 287 285 289 300 304 277 215 196 188 189 194 189 201 221 222 225 214 216 212 192
357 332 316 300 289 277 272 260 255 268 267 272 263 254 258 263 275 282 279 278 275 283 290 289 289 281 274 278 282 269 224 195 179 200 206 222 232 229 229 214 189 192 201
311 318 313 299 290 289 289 270 257 267 258 275 279 270 270 274 278 272 276 278 276 278 279 281 294 306 294 283 276 287 244 204 196 191 199 206 222 221 202 200 190 185 197
299 301 297 290 288 295 294 292 301 294 284 284 283 272 266 262 255 259 261 263 266 271 276 289 288 282 297 290 265 258 244 205 185 195 202 200 174 202 205 207 201 182 180
338 325 316 300 303 304 303 308 306 295 286 282 276 270 264 260 257 254 257 260 262 268 271 275 277 285 289 294 276 250 266 244 214 173 182 197 152 170 194 214 207 188 174
338 327 313 316 304 297 287 289 294 287 281 275 274 271 262 260 263 266 263 261 260 262 261 262 267 260 265 271 280 282 222 191 239 224 173 213 170 205 196 197 190 182 178
322 316 313 293 295 294 288 285 281 281 286 280 277 271 266 260 261 259 256 250 253 255 251 258 258 255 262 256 271 283 278 207 197 216 144 213 176 213 188 205 181 175 173
316 312 303 299 293 293 284 284 287 303 295 286 274 264 256 257 248 245 245 249 250 249 247 245 242 242 246 254 246 256 265 275 216 201 140 186 176 205 153 194 171 177 168
313 312 313 313 307 299 290 300 325 321 310 303 299 289 273 263 255 235 237 242 247 249 242 241 245 247 242 243 236 272 260 252 190 199 177 163 149 100 44 17 162 162 155
297 311 308 304 295 306 335 327 334 327 318 311 302 292 286 267 260 234 232 239 245 248 246 249 244 246 245 244 246 224 236 253 176 155 223 148 124 127 123 56 108 152 144